H1 CPF 2 NER 2023 8 2 9 214 01 glonass116 H2 0907001 9116 36111 2023 8 2 0 0 0 2023 8 5 23 45 0 900 1 1 0 0 0 1 H9 10 0 60158 0.00000 0 4670113.991 9944453.469 -23022609.475 10 0 60158 900.00000 0 2114337.114 11157933.760 -22841360.153 10 0 60158 1800.00000 0 -303559.806 12529355.454 -22216573.833 10 0 60158 2700.00000 0 -2528999.841 14016212.295 -21160329.038 10 0 60158 3600.00000 0 -4516444.205 15567660.209 -19693082.944 10 0 60158 4500.00000 0 -6231042.705 17126583.425 -17843279.622 10 0 60158 5400.00000 0 -7649833.458 18631944.161 -15646803.095 10 0 60158 6300.00000 0 -8762442.624 20021317.971 -13146285.097 10 0 60158 7200.00000 0 -9571255.654 21233508.671 -10390280.406 10 0 60158 8100.00000 0 -10091053.690 22211133.099 -7432325.262 10 0 60158 9000.00000 0 -10348131.202 22903066.794 -4329896.914 10 0 60158 9900.00000 0 -10378932.855 23266647.214 -1143294.533 10 0 60158 10800.00000 0 -10228267.961 23269541.084 2065536.480 10 0 60158 11700.00000 0 -9947178.880 22891196.431 5234213.445 10 0 60158 12600.00000 0 -9590554.413 22123817.395 8301134.415 10 0 60158 13500.00000 0 -9214590.150 20972820.007 11206680.819 10 0 60158 14400.00000 0 -8874204.133 19456749.141 13894380.702 10 0 60158 15300.00000 0 -8620518.043 17606659.646 16312009.315 10 0 60158 16200.00000 0 -8498511.131 15464987.273 18412605.328 10 0 60158 17100.00000 0 -8544946.650 13083956.471 20155382.825 10 0 60158 18000.00000 0 -8786658.737 10523591.492 21506521.458 10 0 60158 18900.00000 0 -9239272.325 7849413.690 22439819.810 10 0 60158 19800.00000 0 -9906410.213 5129920.762 22937199.771 10 0 60158 20700.00000 0 -10779420.843 2433952.570 22989052.746 10 0 60158 21600.00000 0 -11837638.406 -171947.444 22594421.554 10 0 60158 22500.00000 0 -13049164.558 -2626066.305 21761014.970 10 0 60158 23400.00000 0 -14372139.218 -4873846.585 20505054.990 10 0 60158 24300.00000 0 -15756447.467 -6869907.009 18850959.940 10 0 60158 25200.00000 0 -17145791.336 -8579675.761 16830869.549 10 0 60158 26100.00000 0 -18480039.939 -9980569.823 14484021.052 10 0 60158 27000.00000 0 -19697759.717 -11062672.567 11855988.156 10 0 60158 27900.00000 0 -20738818.834 -11828882.709 8997797.325 10 0 60158 28800.00000 0 -21546956.523 -12294529.723 5964938.272 10 0 60158 29700.00000 0 -22072209.432 -12486473.121 2816287.676 10 0 60158 30600.00000 0 -22273092.873 -12441724.587 -387033.098 10 0 60158 31500.00000 0 -22118444.981 -12205651.955 -3582844.023 10 0 60158 32400.00000 0 -21588855.854 -11829841.561 -6709113.033 10 0 60158 33300.00000 0 -20677621.087 -11369709.814 -9705159.659 10 0 60158 34200.00000 0 -19391179.122 -10881965.413 -12512832.106 10 0 60158 35100.00000 0 -17749013.359 -10422029.700 -15077634.803 10 0 60158 36000.00000 0 -15783022.412 -10041524.311 -17349784.521 10 0 60158 36900.00000 0 -13536384.188 -9785932.424 -19285174.679 10 0 60158 37800.00000 0 -11061960.495 -9692532.385 -20846229.383 10 0 60158 38700.00000 0 -8420307.935 -9788690.955 -22002630.981 10 0 60158 39600.00000 0 -5677377.146 -10090588.282 -22731907.389 10 0 60158 40500.00000 0 -2901995.241 -10602428.546 -23019868.174 10 0 60158 41400.00000 0 -163235.179 -11316169.932 -22860881.204 10 0 60158 42300.00000 0 2472219.515 -12211785.889 -22257984.557 10 0 60158 43200.00000 0 4942606.149 -13258047.408 -21222831.473 10 0 60158 44100.00000 0 7193406.102 -14413794.330 -19775469.028 10 0 60158 45000.00000 0 9179364.107 -15629643.084 -17943954.375 10 0 60158 45900.00000 0 10866120.325 -16850059.918 -15763815.340 10 0 60158 46800.00000 0 12231387.934 -18015713.120 -13277365.167 10 0 60158 47700.00000 0 13265627.731 -19066005.683 -10532884.130 10 0 60158 48600.00000 0 13972192.249 -19941681.981 -7583683.386 10 0 60158 49500.00000 0 14366934.080 -20587398.515 -4487069.018 10 0 60158 50400.00000 0 14477295.641 -20954149.937 -1303226.396 10 0 60158 51300.00000 0 14340919.542 -21001447.420 1905953.201 10 0 60158 52200.00000 0 14003839.047 -20699156.650 5078080.415 10 0 60158 53100.00000 0 13518325.975 -20028917.038 8151485.909 10 0 60158 54000.00000 0 12940487.913 -18985081.379 11066424.344 10 0 60158 54900.00000 0 12327717.236 -17575135.535 13766240.145 10 0 60158 55800.00000 0 11736100.598 -15819579.701 16198471.757 10 0 60158 56700.00000 0 11217899.076 -13751275.629 18315872.605 10 0 60158 57600.00000 0 10819205.906 -11414286.604 20077328.765 10 0 60158 58500.00000 0 10577881.028 -8862258.366 21448655.646 10 0 60158 59400.00000 0 10521849.649 -6156408.195 22403258.538 10 0 60158 60300.00000 0 10667836.539 -3363205.634 22922644.730 10 0 60158 61200.00000 0 11020589.204 -551840.998 22996777.830 10 0 60158 62100.00000 0 11572622.476 2208413.589 22624267.978 10 0 60158 63000.00000 0 12304495.115 4850841.680 21812394.786 10 0 60158 63900.00000 0 13185606.714 7313809.756 20576962.873 10 0 60158 64800.00000 0 14175481.440 9543080.237 18941993.000 10 0 60158 65700.00000 0 15225484.768 11493815.238 16939254.768 10 0 60158 66600.00000 0 16280901.220 13132188.870 14607649.808 10 0 60158 67500.00000 0 17283285.956 14436542.198 11992457.159 10 0 60158 68400.00000 0 18172991.503 15398033.958 9144455.190 10 0 60158 69300.00000 0 18891763.383 16020761.068 6118936.841 10 0 60158 70200.00000 0 19385295.414 16321345.133 2974637.119 10 0 60158 71100.00000 0 19605636.932 16328003.416 -227406.444 10 0 60158 72000.00000 0 19513350.285 16079144.332 -3425038.183 10 0 60158 72900.00000 0 19079327.320 15621547.456 -6556190.420 10 0 60158 73800.00000 0 18286187.860 15008205.476 -9560087.774 10 0 60158 74700.00000 0 17129200.657 14295919.622 -12378426.035 10 0 60158 75600.00000 0 15616687.343 13542750.409 -14956502.646 10 0 60158 76500.00000 0 13769891.598 12805431.471 -17244276.844 10 0 60158 77400.00000 0 11622318.040 12136855.619 -19197338.962 10 0 60158 78300.00000 0 9218567.552 11583739.131 -20777770.340 10 0 60158 79200.00000 0 6612716.675 11184562.619 -21954877.532 10 0 60158 80100.00000 0 3866307.591 10967875.044 -22705786.902 10 0 60158 81000.00000 0 1046031.295 10951032.231 -23015888.453 10 0 60158 81900.00000 0 -1778800.756 11139422.955 -22879120.558 10 0 60158 82800.00000 0 -4538892.485 11526215.348 -22298090.140 10 0 60158 83700.00000 0 -7167598.057 12092634.552 -21284025.919 10 0 60158 84600.00000 0 -9603447.266 12808760.439 -19856565.290 10 0 60158 85500.00000 0 -11792457.290 13634812.349 -18043378.504 10 0 60159 0.00000 0 -13690135.266 14522867.306 -15879637.016 10 0 60159 900.00000 0 -15263089.895 15418940.341 -13407334.415 10 0 60159 1800.00000 0 -16490182.953 16265338.474 -10674475.497 10 0 60159 2700.00000 0 -17363176.515 17003190.854 -7734144.854 10 0 60159 3600.00000 0 -17886846.765 17575047.032 -4643475.599 10 0 60159 4500.00000 0 -18078561.302 17927433.809 -1462537.200 10 0 60159 5400.00000 0 -17967338.209 18013261.960 1746835.585 10 0 60159 6300.00000 0 -17592427.302 17793980.393 4922249.389 10 0 60159 7200.00000 0 -17001474.197 17241385.778 8001970.431 10 0 60159 8100.00000 0 -16248345.584 16339010.266 10926129.779 10 0 60159 9000.00000 0 -15390708.381 15083027.730 13637891.595 10 0 60159 9900.00000 0 -14487465.836 13482639.413 16084560.991 10 0 60159 10800.00000 0 -13596159.477 11559921.892 18218609.641 10 0 60159 11700.00000 0 -12770447.050 9349142.958 19998599.033 10 0 60159 12600.00000 0 -12057763.088 6895573.430 21389983.565 10 0 60159 13500.00000 0 -11497260.721 4253843.993 22365778.191 10 0 60159 14400.00000 0 -11118121.234 1485915.040 22907078.191 10 0 60159 15300.00000 0 -10938302.153 -1341256.406 23003421.504 10 0 60159 16200.00000 0 -10963776.060 -4158256.277 22652987.213 10 0 60159 17100.00000 0 -11188291.645 -6895854.646 21862626.812 10 0 60159 18000.00000 0 -11593666.567 -9487639.589 20647727.983 10 0 60159 18900.00000 0 -12150599.414 -11872535.150 19031913.743 10 0 60159 19800.00000 0 -12819966.362 -13997099.801 17046582.772 10 0 60159 20700.00000 0 -13554547.794 -15817510.781 14730299.703 10 0 60159 21600.00000 0 -14301112.153 -17301152.815 12128046.984 10 0 60159 22500.00000 0 -15002769.238 -18427746.085 9290352.481 10 0 60159 23400.00000 0 -15601493.778 -19189967.418 6272309.556 10 0 60159 24300.00000 0 -16040712.809 -19593539.812 3132508.409 10 0 60159 25200.00000 0 -16267847.615 -19656787.552 -68100.657 10 0 60159 26100.00000 0 -16236702.723 -19409676.539 -3267389.925 10 0 60159 27000.00000 0 -15909600.783 -18892381.017 -6403259.839 10 0 60159 27900.00000 0 -15259172.811 -18153437.698 -9414843.901 10 0 60159 28800.00000 0 -14269727.647 -17247565.613 -12243689.296 10 0 60159 29700.00000 0 -12938142.239 -16233243.906 -14834890.215 10 0 60159 30600.00000 0 -11274234.341 -15170149.849 -17138151.894 10 0 60159 31500.00000 0 -9300601.032 -14116565.086 -19108764.802 10 0 60159 32400.00000 0 -7051928.659 -13126859.196 -20708470.322 10 0 60159 33300.00000 0 -4573801.894 -12249156.252 -21906201.498 10 0 60159 34200.00000 0 -1921060.402 -11523282.278 -22678684.834 10 0 60159 35100.00000 0 844229.650 -10979079.500 -23010891.843 10 0 60159 36000.00000 0 3655106.073 -10635157.976 -22896331.868 10 0 60159 36900.00000 0 6442247.399 -10498136.831 -22337180.586 10 0 60159 37800.00000 0 9136611.598 -10562406.859 -21344241.613 10 0 60159 38700.00000 0 11672068.162 -10810424.504 -19936741.646 10 0 60159 39600.00000 0 13987914.977 -11213525.008 -18141962.627 10 0 60159 40500.00000 0 16031176.049 -11733220.702 -15994717.457 10 0 60159 41400.00000 0 17758584.973 -12322930.033 -13536678.728 10 0 60159 42300.00000 0 19138171.875 -12930064.614 -10815572.937 10 0 60159 43200.00000 0 20150387.948 -13498386.274 -7884255.302 10 0 60159 44100.00000 0 20788720.901 -13970534.500 -4799682.861 10 0 60159 45000.00000 0 21059775.908 -14290617.058 -1621805.826 10 0 60159 45900.00000 0 20982819.135 -14406753.733 1587601.052 10 0 60159 46800.00000 0 20588803.650 -14273464.814 4766143.939 10 0 60159 47700.00000 0 19918919.359 -13853802.378 7852028.066 10 0 60159 48600.00000 0 19022728.891 -13121133.275 10785264.184 10 0 60159 49500.00000 0 17955968.775 -12060497.398 13508839.184 10 0 60159 50400.00000 0 16778109.426 -10669482.893 15969827.496 10 0 60159 51300.00000 0 15549777.473 -8958580.447 18120421.291 10 0 60159 52200.00000 0 14330149.549 -6951000.773 19918859.312 10 0 60159 53100.00000 0 13174427.580 -4681962.149 21330236.361 10 0 60159 54000.00000 0 12131501.863 -2197477.039 22327178.050 10 0 60159 54900.00000 0 11241899.942 447312.231 22890368.218 10 0 60159 55800.00000 0 10536107.041 3190179.998 23008919.304 10 0 60159 56700.00000 0 10033327.933 5964161.448 22680579.113 10 0 60159 57600.00000 0 9740741.474 8700097.702 21911770.428 10 0 60159 58500.00000 0 9653278.308 11329276.701 20717463.073 10 0 60159 59400.00000 0 9753930.270 13786060.994 19120881.100 10 0 60159 60300.00000 0 10014577.832 16010394.028 17153050.785 10 0 60159 61200.00000 0 10397300.179 17950081.581 14852198.065 10 0 60159 62100.00000 0 10856112.339 19562754.242 12263006.881 10 0 60159 63000.00000 0 11339055.881 20817430.084 9435752.513 10 0 60159 63900.00000 0 11790554.744 21695613.143 6425326.490 10 0 60159 64800.00000 0 12153936.612 22191882.680 3290171.821 10 0 60159 65700.00000 0 12374013.151 22313949.404 91149.098 10 0 60159 66600.00000 0 12399609.851 22082177.078 -3109644.443 10 0 60159 67500.00000 0 12185938.276 21528590.331 -6250079.877 10 0 60159 68400.00000 0 11696710.054 20695410.988 -9269202.030 10 0 60159 69300.00000 0 10905902.809 19633185.010 -12108411.781 10 0 60159 70200.00000 0 9799102.812 18398579.193 -14712602.206 10 0 60159 71100.00000 0 8374366.939 17051940.518 -17031226.511 10 0 60159 72000.00000 0 6642566.674 15654720.875 -19019277.094 10 0 60159 72900.00000 0 4627198.556 14266875.256 -20638157.021 10 0 60159 73800.00000 0 2363667.749 12944342.484 -21856427.329 10 0 60159 74700.00000 0 -101926.633 11736713.850 -22650416.024 10 0 60159 75600.00000 0 -2714455.138 10685187.012 -23004677.343 10 0 60159 76500.00000 0 -5411802.588 9820890.463 -22912292.623 10 0 60159 77400.00000 0 -8127209.881 9163648.370 -22375007.060 10 0 60159 78300.00000 0 -10791816.831 8721237.134 -21403199.628 10 0 60159 79200.00000 0 -13337301.440 8489164.521 -20015686.428 10 0 60159 80100.00000 0 -15698506.708 8450980.400 -18239360.832 10 0 60159 81000.00000 0 -17815946.458 8579105.866 -16108676.766 10 0 60159 81900.00000 0 -19638086.346 8836145.754 -13664984.489 10 0 60159 82800.00000 0 -21123305.252 9176629.155 -10955731.146 10 0 60159 83700.00000 0 -22241455.400 9549104.380 -8033541.112 10 0 60159 84600.00000 0 -22974956.106 9898499.636 -4955193.678 10 0 60159 85500.00000 0 -23319375.438 10168649.195 -1780517.925 10 0 60160 0.00000 0 -23283475.654 10304877.645 1428773.211 10 0 60160 900.00000 0 -22888720.685 10256532.085 4610288.319 10 0 60160 1800.00000 0 -22168266.974 9979354.040 7702173.911 10 0 60160 2700.00000 0 -21165480.620 9437589.988 10644323.201 10 0 60160 3600.00000 0 -19932043.883 8605749.906 13379548.797 10 0 60160 4500.00000 0 -18525731.497 7469938.610 15854697.569 10 0 60160 5400.00000 0 -17007951.020 6028702.632 18021685.366 10 0 60160 6300.00000 0 -15441151.220 4293355.953 19838431.305 10 0 60160 7200.00000 0 -13886207.737 2287769.976 21269673.563 10 0 60160 8100.00000 0 -12399895.964 47635.647 22287651.128 10 0 60160 9000.00000 0 -11032556.946 -2380772.235 22872638.771 10 0 60160 9900.00000 0 -9826053.769 -4942277.685 23013325.406 10 0 60160 10800.00000 0 -8812103.369 -7574863.758 22707029.079 10 0 60160 11700.00000 0 -8011052.755 -10212025.324 21959744.904 10 0 60160 12600.00000 0 -7431149.927 -12785317.182 20786025.383 10 0 60160 13500.00000 0 -7068338.974 -15226992.315 19208695.627 10 0 60160 14400.00000 0 -6906586.891 -17472621.296 17258409.024 10 0 60160 15300.00000 0 -6918727.437 -19463584.557 14973051.829 10 0 60160 16200.00000 0 -7067785.703 -21149334.484 12397008.037 10 0 60160 17100.00000 0 -7308726.946 -22489333.739 9580298.477 10 0 60160 18000.00000 0 -7590555.394 -23454589.560 6577610.621 10 0 60160 18900.00000 0 -7858674.038 -24028720.567 3447237.747 10 0 60160 19800.00000 0 -8057405.355 -24208512.051 249947.928 10 0 60160 20700.00000 0 -8132566.088 -24003937.029 -2952195.114 10 0 60160 21600.00000 0 -8033986.858 -23437642.745 -6097036.325 10 0 60160 22500.00000 0 -7717869.683 -22543924.636 -9123535.254 10 0 60160 23400.00000 0 -7148883.245 -21367231.259 -11972949.994 10 0 60160 24300.00000 0 -6301906.841 -19960263.290 -14589976.072 10 0 60160 25200.00000 0 -5163348.644 -18381746.603 -16923818.168 10 0 60160 26100.00000 0 -3731981.884 -16693972.965 -18929173.958 10 0 60160 27000.00000 0 -2019262.691 -14960211.410 -20567111.244 10 0 60160 27900.00000 0 -49115.041 -13242098.531 -21805821.717 10 0 60160 28800.00000 0 2142809.513 -11597116.632 -22621237.071 10 0 60160 29700.00000 0 4510367.802 -10076264.784 -22997495.911 10 0 60160 30600.00000 0 6998606.574 -8722019.631 -22927252.669 10 0 60160 31500.00000 0 9545820.895 -7566670.617 -22411822.633 10 0 60160 32400.00000 0 12085905.049 -6631098.685 -21461160.200 10 0 60160 33300.00000 0 14550899.271 -5924048.921 -20093670.483 10 0 60160 34200.00000 0 16873627.240 -5441927.124 -18335857.435 10 0 60160 35100.00000 0 18990315.320 -5169128.329 -16221814.722 10 0 60160 36000.00000 0 20843084.859 -5078883.082 -13792568.526 10 0 60160 36900.00000 0 22382213.879 -5134585.463 -11095284.448 10 0 60160 37800.00000 0 23568073.754 -5291546.509 -8182353.377 10 0 60160 38700.00000 0 24372659.866 -5499098.604 -5110373.810 10 0 60160 39600.00000 0 24780651.977 -5702961.361 -1939050.330 10 0 60160 40500.00000 0 24789959.818 -5847768.295 1269970.115 10 0 60160 41400.00000 0 24411730.942 -5879646.536 4454301.074 10 0 60160 42300.00000 0 23669820.688 -5748739.456 7552034.568 10 0 60160 43200.00000 0 22599746.780 -5411564.412 10502949.784 10 0 60160 44100.00000 0 21247172.973 -4833104.773 13249688.295 10 0 60160 45000.00000 0 19665985.976 -3988546.715 15738872.330 10 0 60160 45900.00000 0 17916047.044 -2864586.390 17922143.960 10 0 60160 46800.00000 0 16060713.112 -1460251.336 19757104.832 10 0 60160 47700.00000 0 14164231.858 212799.392 21208138.240 10 0 60160 48600.00000 0 12289120.041 2130509.884 22247097.879 10 0 60160 49500.00000 0 10493634.776 4257187.864 22853850.370 10 0 60160 50400.00000 0 8829443.205 6546759.993 23016661.590 10 0 60160 51300.00000 0 7339587.343 8944470.325 22732419.881 10 0 60160 52200.00000 0 6056828.261 11388951.876 22006692.308 10 0 60160 53100.00000 0 5002437.757 13814585.651 20853613.253 10 0 60160 54000.00000 0 4185486.812 16154049.638 19295607.697 10 0 60160 54900.00000 0 3602659.335 18340952.302 17362954.594 10 0 60160 55800.00000 0 3238597.755 20312441.478 15093198.673 10 0 60160 56700.00000 0 3066764.771 22011680.564 12530421.871 10 0 60160 57600.00000 0 3050783.987 23390089.232 9724388.245 10 0 60160 58500.00000 0 3146202.103 24409255.549 6729578.713 10 0 60160 59400.00000 0 3302597.623 25042440.009 3604134.188 10 0 60160 60300.00000 0 3465946.454 25275608.914 408727.505 10 0 60160 61200.00000 0 3581143.935 25107954.117 -2794613.885 10 0 60160 62100.00000 0 3594576.214 24551877.692 -5943711.514 10 0 60160 63000.00000 0 3456631.794 23632442.398 -8977442.270 10 0 60160 63900.00000 0 3124046.602 22386311.246 -11836923.925 10 0 60160 64800.00000 0 2561982.938 20860220.811 -14466656.723 10 0 60160 65700.00000 0 1745753.921 19109052.364 -16815598.878 10 0 60160 66600.00000 0 662119.920 17193581.680 -18838155.188 10 0 60160 67500.00000 0 -689898.481 15178001.577 -20495059.845 10 0 60160 68400.00000 0 -2298726.290 13127320.559 -21754136.651 10 0 60160 69300.00000 0 -4140472.203 11104745.928 -22590922.251 10 0 60160 70200.00000 0 -6179690.378 9169160.123 -22989140.672 10 0 60160 71100.00000 0 -8370635.462 7372795.018 -22941020.230 10 0 60160 72000.00000 0 -10658959.880 5759200.546 -22447446.783 10 0 60160 72900.00000 0 -12983783.948 4361591.708 -21517950.271 10 0 60160 73800.00000 0 -15280053.784 3201642.244 -20170524.540 10 0 60160 74700.00000 0 -17481089.753 2288774.659 -18431283.453 10 0 60160 75600.00000 0 -19521220.017 1619975.640 -16333959.365 10 0 60160 76500.00000 0 -21338389.894 1180143.930 -13919253.015 10 0 60160 77400.00000 0 -22876638.294 942955.447 -11234046.829 10 0 60160 78300.00000 0 -24088337.752 872208.627 -8330496.396 10 0 60160 79200.00000 0 -24936104.152 923592.671 -5265017.439 10 0 60160 80100.00000 0 -25394295.768 1046803.371 -2097187.930 10 0 60160 81000.00000 0 -25450038.438 1187916.334 1111413.110 10 0 60160 81900.00000 0 -25103733.502 1291916.342 4298407.146 10 0 60160 82800.00000 0 -24369026.977 1305274.851 7401833.941 10 0 60160 83700.00000 0 -23272241.207 1178465.499 10361361.300 10 0 60160 84600.00000 0 -21851293.003 868310.099 13119462.510 10 0 60160 85500.00000 0 -20154143.940 340054.862 15622537.954 10 0 60161 0.00000 0 -18236848.446 -430911.825 17821958.503 10 0 60161 900.00000 0 -16161280.797 -1457773.963 19675011.359 10 0 60161 1800.00000 0 -13992639.191 -2741488.836 21145727.146 10 0 60161 2700.00000 0 -11796828.100 -4270510.028 22205576.384 10 0 60161 3600.00000 0 -9637830.757 -6021044.043 22834019.324 10 0 60161 4500.00000 0 -7575180.281 -7957830.885 23018900.194 10 0 60161 5400.00000 0 -5661634.515 -10035416.615 22756678.623 10 0 60161 6300.00000 0 -3941150.747 -12199865.423 22052494.221 10 0 60161 7200.00000 0 -2447243.756 -14390840.438 20920063.441 10 0 60161 8100.00000 0 -1201794.416 -16543967.118 19381410.943 10 0 60161 9000.00000 0 -214357.277 -18593381.270 17466440.661 10 0 60161 9900.00000 0 518005.351 -20474355.966 15212354.835 10 0 60161 10800.00000 0 1010357.240 -22125898.197 12662932.025 10 0 60161 11700.00000 0 1289006.709 -23493207.268 9867677.846 10 0 60161 12600.00000 0 1390147.911 -24529892.450 6880864.681 10 0 60161 13500.00000 0 1358083.179 -25199857.384 3760478.830 10 0 60161 14400.00000 0 1243102.256 -25478772.494 567095.416 10 0 60161 15300.00000 0 1099108.633 -25355073.794 -2637297.057 10 0 60161 16200.00000 0 981093.915 -24830446.297 -5790499.559 10 0 60161 17100.00000 0 942567.468 -23919771.756 -8831309.321 10 0 60161 18000.00000 0 1033050.537 -22650542.929 -11700706.907 10 0 60161 18900.00000 0 1295741.170 -21061768.883 -14343000.471 10 0 60161 19800.00000 0 1765449.128 -19202417.077 -16706904.935 10 0 60161 20700.00000 0 2466888.490 -17129457.334 -18746535.302 10 0 60161 21600.00000 0 3413400.618 -14905589.219 -20422295.019 10 0 60161 22500.00000 0 4606162.074 -12596747.410 -21701642.557 10 0 60161 23400.00000 0 6033911.769 -10269488.759 -22559721.665 10 0 60161 24300.00000 0 7673209.939 -7988369.396 -22979843.478 10 0 60161 25200.00000 0 9489219.373 -5813420.487 -22953811.392 10 0 60161 26100.00000 0 11436977.533 -3797827.095 -22482082.529 10 0 60161 27000.00000 0 13463107.737 -1985906.022 -21573762.586 10 0 60161 27900.00000 0 15507899.186 -411466.065 -20246433.881 10 0 60161 28800.00000 0 17507670.070 903381.683 -18525819.472 10 0 60161 29700.00000 0 19397315.915 1948914.636 -16445289.237 10 0 60161 30600.00000 0 21112937.334 2727962.495 -14045216.847 10 0 60161 31500.00000 0 22594437.540 3255537.898 -11372199.476 10 0 60161 32400.00000 0 23787980.981 3557950.196 -8478154.894 10 0 60161 33300.00000 0 24648209.815 3671440.436 -5419313.144 10 0 60161 34200.00000 0 25140124.845 3640395.870 -2255122.369 10 0 60161 35100.00000 0 25240551.437 3515220.228 952909.784 10 0 60161 36000.00000 0 24939128.271 3349950.691 4142416.213 10 0 60161 36900.00000 0 24238776.879 3199723.350 7251387.924 10 0 60161 37800.00000 0 23155631.847 3118195.416 10219384.697 10 0 60161 38700.00000 0 21718434.394 3155034.324 12988714.666 10 0 60161 39600.00000 0 19967414.711 3353580.930 15505559.207 10 0 60161 40500.00000 0 17952710.031 3748786.539 17721020.867 10 0 60161 41400.00000 0 15732384.877 4365511.748 19592073.785 10 0 60161 42300.00000 0 13370136.500 5217259.638 21082398.141 10 0 60161 43200.00000 0 10932781.544 6305397.342 22163082.733 10 0 60161 44100.00000 0 8487628.781 7618899.401 22813182.495 10 0 60161 45000.00000 0 6099847.261 9134624.255 23020120.658 10 0 60161 45900.00000 0 3829939.043 10818112.884 22779928.357 10 0 60161 46800.00000 0 1731420.987 12624876.749 22097317.505 10 0 60161 47700.00000 0 -151188.812 14502121.726 20985585.929 10 0 60161 48600.00000 0 -1783997.279 16390836.540 19466356.813 10 0 60161 49500.00000 0 -3144908.881 18228158.973 17569157.521 10 0 60161 50400.00000 0 -4224296.894 19949921.433 15330845.899 10 0 60161 51300.00000 0 -5025146.861 21493269.887 12794894.930 10 0 60161 52200.00000 0 -5562667.674 22799246.941 10010549.370 10 0 60161 53100.00000 0 -5863387.939 23815231.152 7031870.500 10 0 60161 54000.00000 0 -5963776.844 24497130.515 3916687.322 10 0 60161 54900.00000 0 -5908448.671 24811238.182 725474.492 10 0 60161 55800.00000 0 -5748027.543 24735672.511 -2479821.203 10 0 60161 56700.00000 0 -5536763.329 24261340.884 -5636982.911 10 0 60161 57600.00000 0 -5330000.007 23392386.636 -8684730.865 10 0 60161 58500.00000 0 -5181604.013 22146100.143 -11563910.956 10 0 60161 59400.00000 0 -5141461.684 20552297.477 -14218641.583 10 0 60161 60300.00000 0 -5253151.893 18652192.354 -16597396.532 10 0 60161 61200.00000 0 -5551892.565 16496808.216 -18654002.928 10 0 60161 62100.00000 0 -6062848.130 14144996.371 -20348535.180 10 0 60161 63000.00000 0 -6799869.771 11661142.426 -21648087.901 10 0 60161 63900.00000 0 -7764722.187 9112656.061 -22527413.190 10 0 60161 64800.00000 0 -8946830.185 6567348.051 -22969410.270 10 0 60161 65700.00000 0 -10323556.746 4090802.937 -22965458.302 10 0 60161 66600.00000 0 -11861002.012 1743855.865 -22515586.003 10 0 60161 67500.00000 0 -13515290.905 -419722.293 -21628474.762 10 0 60161 68400.00000 0 -15234296.657 -2355236.089 -20321294.881 10 0 60161 69300.00000 0 -16959729.193 -4028690.001 -18619377.689 10 0 60161 70200.00000 0 -18629501.866 -5417959.401 -16555729.267 10 0 60161 71100.00000 0 -20180278.158 -6513459.926 -14170394.540 10 0 60161 72000.00000 0 -21550091.994 -7318288.022 -11509683.476 10 0 60161 72900.00000 0 -22680931.913 -7847827.602 -8625273.862 10 0 60161 73800.00000 0 -23521180.433 -8128840.132 -5573207.750 10 0 60161 74700.00000 0 -24027805.695 -8198077.304 -2412801.030 10 0 60161 75600.00000 0 -24168212.625 -8100475.666 794512.517 10 0 60161 76500.00000 0 -23921675.037 -7887010.403 3986379.804 10 0 60161 77400.00000 0 -23280287.708 -7612299.943 7100745.708 10 0 60161 78300.00000 0 -22249397.684 -7332063.740 10077064.662 10 0 60161 79200.00000 0 -20847496.153 -7100541.776 12857482.320 10 0 60161 80100.00000 0 -19105575.018 -6967985.886 15387963.671 10 0 60161 81000.00000 0 -17065974.929 -6978329.850 17619345.250 10 0 60161 81900.00000 0 -14780772.901 -7167137.428 19508290.805 10 0 60161 82800.00000 0 -12309776.943 -7559915.569 21018131.867 10 0 60161 83700.00000 0 -9718211.414 -8170864.428 22119577.178 10 0 60161 84600.00000 0 -7074189.519 -9002117.218 22791277.646 10 0 60161 85500.00000 0 -4446078.015 -10043502.279 23020236.420 99